Estación Meteorológica de la Universidad de Murcia
Estación Meteorológica de la Universidad de Murcia
Universidad de Murcia
 

Velocidad y dirección del vientoVelocidad y dirección del viento

 

Velocidad: 31,68 km/h a las 15:22:00 del día 22/06/2018
Dirección del viento: 93,1 º E Rosa de los vientos a las 15:22:00 del día 22/06/2018

Nota:
N (entre 337,6º y 22,5º), NE (entre 22,6º y 67,5º), E (entre 67,6º y 112,5º), SE (entre 112,6º y 157,5º), S (entre 157,6º y 202,5º), SW (entre 202,6º y 247,5º), W (entre 247,5º y 292,5º) y NW (entre 292,6º y 337,5º)

||Velocidad últimos meses|| ----||Dirección del viento||


Velocidad

  • 1 - 31,68 km/h del día 22/06/2018
  • 2 - 28,8 km/h del día 21/06/2018
  • 3 - 30,24 km/h del día 20/06/2018
  • 4 - 32,76 km/h del día 19/06/2018
  • 5 - 32,04 km/h del día 18/06/2018
  • 6 - 32,04 km/h del día 17/06/2018
  • 7 - 33,48 km/h del día 16/06/2018
  • 8 - 29,16 km/h del día 15/06/2018
  • 9 - 37,08 km/h del día 14/06/2018
  • 10 - 42,48 km/h del día 13/06/2018
  • 11 - 37,44 km/h del día 12/06/2018
  • 12 - 35,28 km/h del día 11/06/2018
  • 13 - 30,24 km/h del día 10/06/2018
  • 14 - 29,88 km/h del día 09/06/2018
  • 15 - 38,52 km/h del día 08/06/2018
  • 16 - 27,36 km/h del día 07/06/2018
  • 17 - 32,76 km/h del día 06/06/2018
  • 18 - 34,92 km/h del día 05/06/2018
  • 19 - 32,4 km/h del día 04/06/2018
  • 20 - 40,68 km/h del día 03/06/2018
  • 21 - 35,64 km/h del día 02/06/2018
  • 22 - 35,28 km/h del día 01/06/2018
  • 23 - 31,68 km/h del día 31/05/2018
  • 24 - 28,44 km/h del día 30/05/2018
  • 25 - 34,92 km/h del día 29/05/2018
  • 26 - 34,2 km/h del día 28/05/2018
  • 27 - 36,36 km/h del día 27/05/2018
  • 28 - 36,72 km/h del día 26/05/2018
  • 29 - 32,76 km/h del día 25/05/2018
  • 30 - 42,48 km/h del día 24/05/2018
  • 31 - 36,36 km/h del día 23/05/2018
  • 32 - 31,32 km/h del día 22/05/2018
  • 33 - 32,76 km/h del día 21/05/2018
  • 34 - 31,32 km/h del día 20/05/2018
  • 35 - 33,12 km/h del día 19/05/2018
  • 36 - 35,64 km/h del día 18/05/2018
  • 37 - 43,92 km/h del día 17/05/2018
  • 38 - 32,76 km/h del día 16/05/2018
  • 39 - 32,76 km/h del día 15/05/2018
  • 40 - 30,24 km/h del día 14/05/2018
  • 41 - 46,08 km/h del día 13/05/2018
  • 42 - 40,68 km/h del día 12/05/2018
  • 43 - 20,16 km/h del día 11/05/2018
  • 44 - 38,52 km/h del día 10/05/2018
  • 45 - 42,84 km/h del día 09/05/2018
  • 46 - 46,44 km/h del día 08/05/2018
  • 47 - 29,52 km/h del día 07/05/2018
  • 48 - 32,76 km/h del día 06/05/2018
  • 49 - 33,12 km/h del día 05/05/2018
  • 50 - 33,12 km/h del día 04/05/2018
  • 51 - 31,32 km/h del día 03/05/2018
  • 52 - 40,32 km/h del día 02/05/2018
  • 53 - 32,4 km/h del día 01/05/2018
  • 54 - 31,32 km/h del día 30/04/2018
  • 55 - 54,36 km/h del día 29/04/2018
  • 56 - 37,8 km/h del día 28/04/2018
  • 57 - 33,12 km/h del día 27/04/2018
  • 58 - 26,28 km/h del día 26/04/2018
  • 59 - 23,76 km/h del día 25/04/2018
  • 60 - 51,84 km/h del día 24/04/2018

||Volver al inicio de la página||


Dirección del viento

  • 1 - 1898.23 º 1898,23 del día 31/05/2018
  • 2 - 2099.09 º 2099,09 del día 30/05/2018
  • 3 - 1727.74 º 1727,74 del día 30/04/2018
  • 4 - 1192.64 º 1192,64 del día 29/05/2018
  • 5 - 2338.18 º 2338,18 del día 29/04/2018
  • 6 - 1732.02 º 1732,02 del día 28/05/2018
  • 7 - 1452.41 º 1452,41 del día 28/04/2018
  • 8 - 1793.65 º 1793,65 del día 27/05/2018
  • 9 - 2065.16 º 2065,16 del día 27/04/2018
  • 10 - 1122.42 º 1122,42 del día 26/05/2018
  • 11 - 1648.84 º 1648,84 del día 26/04/2018
  • 12 - 1771.55 º 1771,55 del día 25/05/2018
  • 13 - 1790.63 º 1790,63 del día 25/04/2018
  • 14 - 1386.54 º 1386,54 del día 24/05/2018
  • 15 - 1377.27 º 1377,27 del día 24/04/2018
  • 16 - 1398.23 º 1398,23 del día 23/06/2018
  • 17 - 907.65 º N del día 23/05/2018
  • 18 - 796.22 º N del día 23/04/2018
  • 19 - 1382.71 º 1382,71 del día 22/06/2018
  • 20 - 1789.84 º 1789,84 del día 22/05/2018
  • 21 - 1339.34 º 1339,34 del día 21/06/2018
  • 22 - 1724.99 º 1724,99 del día 21/05/2018
  • 23 - 1506.3 º 1506,3 del día 20/06/2018
  • 24 - 1516.62 º 1516,62 del día 20/05/2018
  • 25 - 1275.67 º 1275,67 del día 19/06/2018
  • 26 - 1513.64 º 1513,64 del día 19/05/2018
  • 27 - 1268.7 º 1268,7 del día 18/06/2018
  • 28 - 1488.69 º 1488,69 del día 18/05/2018
  • 29 - 1306.45 º 1306,45 del día 17/06/2018
  • 30 - 1467.12 º 1467,12 del día 17/05/2018
  • 31 - 1056.05 º 1056,05 del día 16/06/2018
  • 32 - 1311.49 º 1311,49 del día 16/05/2018
  • 33 - 1402.06 º 1402,06 del día 15/06/2018
  • 34 - 1561.2 º 1561,2 del día 15/05/2018
  • 35 - 1444.48 º 1444,48 del día 14/06/2018
  • 36 - 1665.23 º 1665,23 del día 14/05/2018
  • 37 - 1919.86 º 1919,86 del día 13/06/2018
  • 38 - 2076.15 º 2076,15 del día 13/05/2018
  • 39 - 2264.71 º 2264,71 del día 12/06/2018
  • 40 - 1948.55 º 1948,55 del día 12/05/2018
  • 41 - 2051.52 º 2051,52 del día 11/06/2018
  • 42 - 1420.68 º 1420,68 del día 11/05/2018
  • 43 - 1963.14 º 1963,14 del día 10/06/2018
  • 44 - 1515.55 º 1515,55 del día 10/05/2018
  • 45 - 1272.13 º 1272,13 del día 09/06/2018
  • 46 - 2197.08 º 2197,08 del día 09/05/2018
  • 47 - 1720.47 º 1720,47 del día 08/06/2018
  • 48 - 1662.85 º 1662,85 del día 08/05/2018
  • 49 - 2112.94 º 2112,94 del día 07/06/2018
  • 50 - 1565.86 º 1565,86 del día 07/05/2018
  • 51 - 2184.98 º 2184,98 del día 06/06/2018
  • 52 - 1353.53 º 1353,53 del día 06/05/2018
  • 53 - 1767.16 º 1767,16 del día 05/06/2018
  • 54 - 1371.34 º 1371,34 del día 05/05/2018
  • 55 - 2255.25 º 2255,25 del día 04/06/2018
  • 56 - 1307.69 º 1307,69 del día 04/05/2018
  • 57 - 2227.73 º 2227,73 del día 03/06/2018
  • 58 - 1885.85 º 1885,85 del día 03/05/2018
  • 59 - 1353.03 º 1353,03 del día 02/06/2018
  • 60 - 2253.14 º 2253,14 del día 02/05/2018
  • 61 - 989.94 º N del día 01/06/2018
  • 62 - 1892.89 º 1892,89 del día 01/05/2018

|| Temperatura Ambiente|| Humedad relativa|| Precipitación|| Radiación Solar Global y PAR|| Temperatura y humedad del suelo|| Presión atmosférica|| Más información|| Volver a la página principal|| Volver al inicio de la página||


Estación Meteorológica de la Universidad de Murcia
http://estacion.um.es/
Informacion actualizada a: 23/06/2018 a las 23:07:00